{"data":{"norad_id":68861,"epoch":"2026-09-19T23:36:23.072832Z","epoch_age_seconds":60231,"freshness":"FRESH","line1":"1 68861U 26094Y   26262.98360038  .00013935  00000+0  43302-3 0  9990","line2":"2 68861  97.2842 276.1922 0001446  90.5714 269.5695 15.33454647 22584","mean_motion":15.33454647,"eccentricity":0.0001446,"inclination_deg":97.2842,"raan_deg":276.1922,"arg_perigee_deg":90.5714,"mean_anomaly_deg":269.5695,"bstar":0.00043302,"rev_number":2258,"period_min":93.905613890647,"perigee_km":464.524879941,"apogee_km":466.50406394669,"semimajor_km":6843.6514719438,"source":"CELESTRAK","updated_at":"2026-09-20T09:00:44.044888Z"}}